CW1248 Weather Reports


Display with metric or nautical units.
time (UTC)temp
F
wind
direction
speed
MPH
gust
MPH
rain 1hr
in
rain 24hr
in
rain mn
in
humidity
%
barometer
mb
20260906161504 73 139 7.0 13.0 0.00 0.00 0.00 84 1020.2
20260906160010 73 74 4.0 15.0 0.00 0.00 0.00 86 1020.2
20260906154506 72 146 4.0 14.0 0.00 0.00 0.00 86 1020.2
20260906153009 72 74 5.0 10.0 0.00 0.00 0.00 88 1020.2
20260906151512 71 115 4.0 12.0 0.00 0.00 0.00 89 1020.5
20260906150009 70 115 4.0 12.0 0.00 0.00 0.00 90 1020.5
20260906144510 70 71 5.0 11.0 0.00 0.00 0.00 90 1020.3
20260906143006 70 141 6.0 18.0 0.00 0.00 0.00 91 1020.3
20260906141508 70 142 7.0 15.0 0.00 0.00 0.00 92 1020.2
20260906140015 69 68 7.0 15.0 0.00 0.00 0.00 93 1020.1
20260906134510 69 132 4.0 10.0 0.00 0.00 0.00 94 1020.0
20260906133008 68 165 3.0 11.0 0.00 0.00 0.00 94 1019.8
20260906131511 68 108 5.0 9.0 0.00 0.00 0.00 95 1019.7
20260906130019 67 100 2.0 10.0 0.00 0.00 0.00 94 1019.4
20260906124508 67 82 3.0 9.0 0.00 0.00 0.00 94 1019.5
20260906123017 67 86 4.0 9.0 0.00 0.00 0.00 94 1019.3
20260906121522 67 71 2.0 7.0 0.00 0.00 0.00 94 1019.3
20260906120013 66 93 2.0 7.0 0.00 0.00 0.00 93 1019.2
20260906114522 66 116 1.0 6.0 0.00 0.00 0.00 93 1019.1
20260906113036 67 57 2.0 5.0 0.00 0.00 0.00 93 1018.9
20260906111515 67 76 1.0 3.0 0.00 0.00 0.00 93 1018.9
20260906110019 67 146 1.0 6.0 0.00 0.00 0.00 92 1018.9
20260906104527 67 137 2.0 4.0 0.00 0.00 0.00 92 1018.7
20260906103010 67 119 3.0 8.0 0.00 0.00 0.00 92 1018.8
20260906101519 68 137 3.0 7.0 0.00 0.00 0.00 92 1018.7
20260906100019 68 83 2.0 6.0 0.00 0.00 0.00 91 1018.6
20260906094504 68 76 2.0 7.0 0.00 0.00 0.00 91 1018.3
20260906093013 69 137 1.0 6.0 0.00 0.00 0.00 90 1018.3
20260906091524 69 110 2.0 7.0 0.00 0.00 0.00 90 1018.0
20260906090007 69 105 4.0 9.0 0.00 0.00 0.00 90 1018.0
20260906084506 69 90 5.0 9.0 0.00 0.00 0.00 90 1018.0
20260906083016 70 72 3.0 10.0 0.00 0.00 0.00 89 1017.8
20260906081539 70 105 5.0 9.0 0.00 0.00 0.00 89 1017.7
20260906080020 70 98 4.0 12.0 0.00 0.00 0.00 89 1017.7
20260906074517 70 88 3.0 9.0 0.00 0.00 0.00 89 1017.8
20260906073008 70 87 3.0 10.0 0.00 0.00 0.00 88 1017.9
20260906071527 71 74 5.0 9.0 0.00 0.00 0.00 88 1018.0
20260906070024 71 71 2.0 7.0 0.00 0.00 0.00 88 1018.2
20260906064514 71 103 4.0 11.0 0.00 0.00 0.00 88 1018.3
20260906063019 71 86 4.0 10.0 0.00 0.00 0.00 88 1018.2
20260906061518 71 88 2.0 8.0 0.00 0.00 0.00 88 1018.3
20260906060024 71 93 3.0 8.0 0.00 0.00 0.00 89 1018.1
20260906054515 71 72 3.0 7.0 0.00 0.00 0.00 89 1018.2
20260906053032 71 103 2.0 8.0 0.00 0.00 0.00 89 1018.2
20260906051531 71 93 3.0 7.0 0.00 0.00 0.00 89 1018.2
20260906050033 71 70 2.0 8.0 0.00 0.00 0.00 88 1018.5
20260906044532 71 93 3.0 8.0 0.00 0.00 0.00 88 1018.6
20260906043016 71 75 4.0 8.0 0.00 0.00 0.00 88 1018.6
20260906041531 71 78 3.0 6.0 0.00 0.00 0.00 88 1018.7
20260906040031 72 103 0.0 4.0 0.00 0.00 0.00 87 1018.6
20260906034523 72 51 3.0 7.0 0.00 0.00 0.00 85 1018.5
20260906033039 72 70 3.0 6.0 0.00 0.00 0.00 85 1018.4
20260906031529 73 51 1.0 7.0 0.00 0.00 0.00 85 1018.5
20260906030024 73 86 3.0 7.0 0.00 0.00 0.00 84 1018.5
20260906024517 73 93 3.0 6.0 0.00 0.00 0.00 84 1018.6
20260906023026 73 93 2.0 8.0 0.00 0.00 0.00 84 1018.6
20260906021531 74 93 1.0 6.0 0.00 0.00 0.00 84 1018.3
20260906020031 74 79 2.0 6.0 0.00 0.00 0.00 83 1017.8
20260906014528 74 133 2.0 5.0 0.00 0.00 0.00 82 1017.4
20260906013026 75 150 4.0 9.0 0.00 0.00 0.00 81 1017.2
20260906011523 76 135 2.0 8.0 0.00 0.00 0.00 80 1016.9
20260906010033 77 87 3.0 8.0 0.00 0.00 0.00 78 1016.7
20260906004527 78 151 2.0 9.0 0.00 0.00 0.00 76 1016.6
20260906003006 79 84 3.0 9.0 0.00 0.00 0.00 73 1016.7
20260906001506 80 123 4.0 10.0 0.00 0.00 0.00 70 1016.5
20260906000004 81 115 2.0 11.0 0.00 0.00 0.00 69 1016.4
20260905234525 83 80 2.0 12.0 0.00 0.00 0.00 66 1016.3
20260905233006 84 110 3.0 13.0 0.00 0.00 0.00 65 1016.3
20260905231514 85 77 3.0 9.0 0.00 0.00 0.00 65 1016.0
20260905230015 85 110 5.0 13.0 0.00 0.00 0.00 64 1015.9
20260905224508 85 63 8.0 15.0 0.00 0.00 0.00 62 1015.6
20260905223007 85 93 7.0 14.0 0.00 0.00 0.00 63 1015.4
20260905221520 84 121 9.0 15.0 0.00 0.00 0.00 65 1015.4
20260905220026 83 113 7.0 13.0 0.00 0.00 0.00 68 1015.7
20260905214507 83 93 5.0 11.0 0.00 0.00 0.00 69 1015.9
20260905213016 83 80 4.0 11.0 0.00 0.00 0.00 67 1016.1
20260905211524 84 93 6.0 14.0 0.00 0.00 0.00 64 1016.0
20260905210029 87 86 5.0 17.0 0.00 0.00 0.00 63 1016.1
20260905204531 87 93 6.0 14.0 0.00 0.00 0.00 65 1016.0
20260905203036 85 85 6.0 18.0 0.00 0.00 0.00 68 1016.2
20260905201526 85 64 7.0 18.0 0.00 0.00 0.00 67 1016.5
20260905200025 85 90 7.0 14.0 0.00 0.00 0.00 68 1017.0
20260905194537 84 57 8.0 13.0 0.00 0.00 0.00 69 1017.3
20260905193036 83 55 9.0 14.0 0.00 0.00 0.00 73 1017.3
20260905191526 81 72 3.0 7.0 0.00 0.00 0.00 75 1017.7
20260905190031 80 105 2.0 4.0 0.00 0.00 0.00 77 1017.9
20260905184532 80 146 2.0 6.0 0.00 0.00 0.00 78 1017.9
20260905183024 79 128 1.0 5.0 0.00 0.00 0.00 77 1018.0
20260905181524 79 178 2.0 9.0 0.00 0.00 0.00 79 1018.2
20260905180007 78 128 2.0 9.0 0.00 0.00 0.00 82 1018.4
20260905174513 76 116 1.0 8.0 0.00 0.00 0.00 84 1018.3
20260905173013 75 67 1.0 9.0 0.00 0.00 0.00 84 1018.9
20260905171506 75 107 5.0 11.0 0.00 0.00 0.00 85 1018.9
20260905170012 74 93 3.0 9.0 0.00 0.00 0.00 86 1019.1
20260905164518 74 76 4.0 8.0 0.00 0.00 0.00 87 1019.0
20260905163024 73 82 5.0 10.0 0.00 0.00 0.00 87 1019.2